Home   Weather   Emsdetten   Past weeks

Flag for Germany Past Weather in Emsdetten, North Rhine-Westphalia, Germany — Yesterday and Last 2 Weeks

Now
45 °F

Rain. Partly sunny.


Feels Like: 38 °F
Forecast: 40 / 49 °F
Wind: 14 mph from West

Location: Muenster / Osnabrueck

Current Time: Feb 22, 2017 at 4:50:15 pm

Latest Report: Feb 22, 2017 at 3:50 pm


Visibility: N/A

Pressure: 29.62 "Hg

Humidity: 93%

Dew Point: 43 °F

Location of EmsdettenLocation

Past Weather in Emsdetten — Graph

°F

Emsdetten Temperature Yesterday

Maximum temperature yesterday: 52 °F (at 1:20 pm)
Minimum temperature yesterday: 45 °F (at 8:20 pm)
Average temperature yesterday: 48 °F

High & Low Weather Summary for the Past Weeks

 TemperatureHumidityPressure
High55 °F (Feb 15, 2:50 pm)100% (Feb 16, 5:20 am)30.51 "Hg (Feb 16, 5:20 am)
Low27 °F (Feb 9, 10:50 pm)29% (Feb 14, 12:20 pm)29.59 "Hg (Feb 22, 1:50 pm)
Average38 °F82%30.23 "Hg
* Reported Feb 7 3:20 pm — Feb 22 3:20 pm, Emsdetten, Weather by CustomWeather, © 2017

Note: Actual official high and low records may vary slightly from our data, if they occured in-between our weather recording intervals... More about our weather records

Advertising

Emsdetten Weather History for the Previous 24 Hours

Scroll right to see more
 ConditionsComfort  
Time TempWeatherWind HumidityBarometerVisibility
3:20 pm
Wed, Feb 22
46 °FRain. Partly sunny.14 mph93%29.62 "Hg5 mi
2:50 pm46 °FRain. Partly sunny.16 mph93%29.62 "Hg2 mi
2:20 pm50 °FRain. Partly sunny.23 mph94%29.59 "Hg2 mi
1:50 pm50 °FLight rain. Broken clouds.24 mph94%29.59 "Hg2 mi
1:20 pm52 °FLight rain. Partly sunny.25 mph88%29.62 "HgN/A
12:50 pm50 °FLight rain. Partly sunny.23 mph94%29.62 "HgN/A
12:20 pm50 °FLight rain. Partly sunny.23 mph94%29.62 "Hg2 mi
11:50 am50 °FLight rain. Partly sunny.23 mph94%29.62 "Hg6 mi
11:20 am50 °FDrizzle. Partly sunny.22 mph94%29.62 "Hg2 mi
10:50 am50 °FDrizzle. Partly sunny.21 mph94%29.65 "Hg2 mi
10:20 am50 °FDrizzle. Partly sunny.20 mph94%29.62 "Hg2 mi
9:50 am50 °FDrizzle. Partly sunny.20 mph94%29.62 "Hg2 mi
9:20 am50 °FDrizzle. Partly sunny.20 mph94%29.62 "Hg2 mi
8:50 am50 °FLight rain. Partly sunny.17 mph94%29.62 "Hg4 mi
8:20 am48 °FDrizzle. Partly sunny.20 mph94%29.62 "Hg3 mi
7:50 am50 °FLight rain. Partly sunny.23 mph88%29.62 "Hg4 mi
7:20 am50 °FLight rain. Passing clouds.22 mph88%29.62 "HgN/A
6:50 am50 °FLight rain. Passing clouds.23 mph88%29.65 "HgN/A
6:20 am50 °FLight rain. Passing clouds.22 mph88%29.65 "Hg6 mi
5:50 am52 °FPassing clouds.24 mph82%29.65 "HgN/A
5:20 am52 °FPassing clouds.22 mph82%29.65 "HgN/A
4:50 am52 °FPassing clouds.21 mph82%29.65 "HgN/A
4:20 am52 °FPassing clouds.22 mph82%29.68 "HgN/A
3:50 am52 °FPassing clouds.21 mph82%29.68 "HgN/A
3:20 am52 °FPassing clouds.22 mph88%29.71 "HgN/A
2:50 am52 °FPassing clouds.20 mph88%29.71 "HgN/A
2:20 am50 °FPassing clouds.22 mph94%29.71 "HgN/A
1:50 am50 °FPassing clouds.18 mph94%29.71 "Hg6 mi
1:20 am50 °FPassing clouds.16 mph94%29.74 "Hg6 mi
12:50 am50 °FPassing clouds.14 mph94%29.77 "Hg4 mi
12:20 am48 °FPassing clouds.9 mph94%29.77 "Hg4 mi
11:50 pm
Tue, Feb 21
46 °FPassing clouds.8 mph93%29.80 "Hg4 mi
11:20 pm46 °FPassing clouds.9 mph93%29.83 "Hg5 mi
10:50 pm46 °FPassing clouds.9 mph93%29.83 "Hg4 mi
10:20 pm46 °FPassing clouds.7 mph82%29.86 "HgN/A
9:50 pm45 °FPassing clouds.6 mph81%29.86 "HgN/A
9:20 pm45 °FPassing clouds.7 mph81%29.89 "HgN/A
8:50 pm45 °FClear.7 mph81%29.89 "Hg10 mi
8:20 pm45 °FClear.7 mph81%29.89 "Hg10 mi
7:50 pm46 °FPassing clouds.7 mph76%29.92 "HgN/A
7:20 pm46 °FPassing clouds.6 mph76%29.92 "HgN/A
6:50 pm46 °FPassing clouds.7 mph76%29.92 "HgN/A
6:20 pm46 °FPassing clouds.6 mph76%29.92 "HgN/A
5:50 pm46 °FPartly sunny.8 mph71%29.92 "HgN/A
5:20 pm48 °FBroken clouds.12 mph71%29.92 "HgN/A
4:50 pm50 °FBroken clouds.14 mph62%29.92 "HgN/A
4:20 pm50 °FScattered clouds.10 mph62%29.92 "HgN/A
Weather by CustomWeather, © 2017

See weather overviewHow to use our weather pages